Regional Weather Roundup
Issued by NWS Jackson, KY

Home | Current Version | Previous Version | Graphics & Text | Print | Product List | Glossary On
Versions: 1 2 3 4 5 6 7 8 9 10 11 12 13 14 15 16 17 18 19 20 21 22 23 24 25 26 27
000
ASUS43 KJKL 280810
RWRJKL

EAST KENTUCKY HOURLY WEATHER ROUNDUP
NATIONAL WEATHER SERVICE JACKSON KY
300 AM EST TUE FEB 28 2017

NOTE: "FAIR" INDICATES FEW OR NO CLOUDS BELOW 12,000 FEET WITH
NO SIGNIFICANT WEATHER AND/OR OBSTRUCTIONS TO VISIBILITY.

* THESE REPORTS ARE NOT UNDER NWS QUALITY CONTROL AND MAY NOT
  REPORT WEATHER SUCH AS PRECIPITATION AND FOG.

KYZ079-080-083-085-087-088-110-112-115-119-120-280900
...EASTERN KENTUCKY...

CITY           SKY/WX    TMP DP  RH WIND       PRES   REMARKS
JACKSON        CLEAR     49  34  56 VRB6      30.18F
LONDON         CLEAR     39  33  79 CALM      30.18F
SOMERSET*      CLEAR     43  41  93 S5        30.16F
MONTICELLO*    PTCLDY    50  45  83 E8        30.16
WILLIAMSBURG*  SUNNY     48  45  87 SE8       30.17F
MIDDLESBORO*   CLEAR     37  35  93 CALM      30.24F
HARLAN APT*    SUNNY     45  36  70 CALM      30.23S
PIKE CO APT*     N/A     49  33  52 SE6       30.21F
BIG SANDY APT* SUNNY     49  33  54 SE3       30.20F
MOREHEAD APT*  CLOUDY    45  34  65 SE5       30.18F
ASHLAND*       CLOUDY    36  34  93 CALM      30.19F
$$

KYZ035-036-041-042-044-050-067-078-099-280900
...CENTRAL KENTUCKY...

CITY           SKY/WX    TMP DP  RH WIND       PRES   REMARKS
FLEMING/MASON* CLOUDY    42  35  74 SE8       30.15F
DANVILLE*      PTCLDY    45  41  87 SW8       30.15S
LEXINGTON      CLEAR     46  40  79 SE8       30.13F
FRANKFORT      PTCLDY    45  38  76 SE5       30.12F
LOUISVILLE     CLOUDY    50  42  74 SE10      30.09F
LEBANON*       PTSUNNY   48  45  87 S10       30.12F
GLASGOW*       PTCLDY    51  45  79 S8        30.11F
BOWLING GREEN  CLOUDY    53  47  79 S9        30.11F
$$

KYZ091>093-OHZ055-061-077-WVZ005-015-034-035-042-280900
...SOUTHERN OHIO/WEST VIRGINIA...

CITY           SKY/WX    TMP DP  RH WIND       PRES   REMARKS
COVINGTON      CLOUDY    44  39  82 S9        30.12F
COLUMBUS       CLOUDY    43  38  82 E6        30.15F
DAYTON         CLOUDY    42  38  85 SE9       30.13F
WILMINGTON     CLOUDY    42  37  82 S6        30.13F
HUNTINGTON     CLOUDY    39  37  92 CALM      30.20F
CHARLESTON     CLEAR     39  36  89 SE3       30.23R
PINEVILLE*     CLEAR     35  31  85 MISG      30.31S
BECKLEY        CLEAR     46  30  53 SE10      30.26S
BLUEFIELD      CLEAR     46  31  55 S6        30.27S
LOGAN CO APT*    N/A     50  32  50 S6        30.23F
$$

VAZ002-007-008-TNZ017-027-036-066-071-280900
...SOUTHWEST VIRGINIA/EAST TENNESSEE...

CITY           SKY/WX    TMP DP  RH WIND       PRES   REMARKS
WISE*          CLEAR     48  36  61 CALM      30.25F
JONESVILLE*      N/A     34  32  93 CALM      30.28F
ABINGDON*      CLEAR     41  33  75 CALM      30.28S
BRISTOL        CLEAR     39  35  86 CALM      30.27F
MORRISTOWN*    SUNNY     37  34  87 CALM      30.24F
SEVIERVILLE*   SUNNY     34  30  86 CALM      30.25F
KNOXVILLE      PTCLDY    42  37  82 NE6       30.22F
LAFOLLETTE*    SUNNY     36  34  93 CALM      30.26F
OAK RIDGE      CLEAR     42  38  85 CALM      30.25F
CROSSVILLE     MOCLDY    50  46  86 S8        30.20F
NASHVILLE      CLOUDY    54  49  83 S13       30.13F
$$

...KEY TO REMARKS...
VSB - VISIBILITY IN MILES
WCI - WIND CHILL INDEX
HX  - HEAT INDEX

$$




USA.gov is the U.S. government's official web portal to all federal, state and local government web resources and services.